{"data":{"norad_id":55751,"intl_designator":"2023-028L","name":"STARLINK-5577","alt_names":[],"object_type":"PAYLOAD","status":"ACTIVE","operator":null,"country":"US","launch_date":"2023-03-03","launch_site_code":"AFWTR","launch_vehicle":null,"mission":null,"orbit_class":"UNKNOWN","rcs_meters":null,"size_class":null,"mass_kg":null,"dimensions":null,"purposes":["comms"],"wikipedia_slug":null,"has_3d_model":false,"image_url":null,"decayed_at":null,"tle_current":{"epoch":"2026-09-20T22:00:03.000096Z","epoch_age_seconds":66975,"freshness":"FRESH","line1":"1 55751U 23028L   26263.91670139  .00071663  00000+0  51528-2 0  9998","line2":"2 55751  70.0019 112.2802 0005985 291.8122  10.8182 15.03830064  5713","mean_motion":15.03830064,"eccentricity":0.0005985,"inclination_deg":70.0019,"raan_deg":112.2802,"arg_perigee_deg":291.8122,"mean_anomaly_deg":10.8182,"bstar":0.0051528,"rev_number":571,"period_min":95.755500203911,"perigee_km":550.94971455874,"apogee_km":559.24879835772,"semimajor_km":6933.2362564582,"source":"CELESTRAK","updated_at":"2026-09-21T09:00:33.313133Z"}}}